FENGYUN 1C DEB, 30047

Orbit data source: Space-Track

FENGYUN 1C DEB, 30047 is space debris in SSO originally from a launch on Mon, 10 May 1999 UTC launched from the Taiyaun Space Center, China (TSC). Fengyun 1C debris stems from the Chinese weather satellite Fengyun-1C, which was intentionally destroyed by a Chinese anti-satellite missile in 2007. This event dramatically increased the amount of space debris, with thousands of trackable fragments posing hazards to satellites and human spaceflight. The Fengyun 1C debris cloud has become a focal point in discussions about space sustainability and the need for international regulations to prevent the creation of new debris.

Loading next visibility...
Identifier
30047, 1999-025NY
Orbit
SSO
Country
Flag of CNCN / PRC
Related business
Manufacturer
Unknown
Mission
Spacecraft
Bus & Motor
Unknown
Mass
Unknown
Launch date (UTC)
1999-05-10 (27 years ago)
Launch vehicle
Unknown
Launch site
Taiyaun Space Center, China (TSC)
Object type
Payload
Rocket body
Debris
Shape & HBR
Unknown shape, 0.1 m
Radar Cross Section
Medium (>0.1 m² and <1 m²)

Expand to show TLE details & history
Last TLE update: 5 hours ago

TLE from 5 hours ago
0 FENGYUN 1C DEB
1 30047U 99025NY  26238.43955035  .00000604  00000-0  45775-3 0  9995
2 30047  99.9412  59.7633 0125365   1.1775  57.5668 13.94796545994941
Epoch: 2026-08-26T10:32Z
TLE epoch observation values (Epoch: 2026-08-26T10:32:57.150Z)
Latitude
58.60933°
Longitude
-89.76971°
Altitude
873.493 km
Speed
7.446 km/s
True Right ascension
02h 52m 38s
True Declination
58° 27' 31"
Sunlit
Object was in daylight at epoch
Visualization orbit readout
Latitude
Unknown
Longitude
Unknown
Altitude
Unknown
Speed
Unknown
Apparent Right ascension
Unknown
Apparent Declination
Unknown
Sunlit
N/A
Visualization observer readout
Local Sidereal Time
07:00:45
Azimuth
Unknown
Elevation
Unknown
Doppler factor
Unknown
Orbital elements
Apogee altitude
1,000.481 km
Perigee altitude
817.767 km
Semi-major axis
7,287.261 km
Eccentricity
0.01254
Inclination
99.9412°
RAAN
59.7633°
Arg. of periapsis
1.1775°
True anomaly
58.78948°
Mean anomaly
57.5668°
Eccentric anomaly
58.17712°
Mean motion
3.48897 °/min
Orbital period
103.18 mins
BSTAR
0.00045775
Loading maneuver chart data...
Computing Atmospheric mass density...

Documentation

Showing up to 5 results
|